• In Deutschland
  • Länderverzeichnis
  • Für 7 Tage
  • Wassertemperatur
  • Satellitenkarten
  • Wetterkarte
  • Widgets
  • user-avatar
    Anmelden

    Stündliche Wetter Smolan

    Heute, 25 September, Montag

    Zeit Temperatur Niederschläge Wind Luftdruck Luftfeuchtigkeit
    00:00 +11°C° 0 mm 1 m/S 658 mmHg 68%
    01:00 +11°C° 0 mm 1 m/S 658 mmHg 67%
    02:00 +11°C° 0 mm 1 m/S 658 mmHg 67%
    03:00 +11°C° 0 mm 1 m/S 658 mmHg 67%
    04:00 +10°C° 0 mm 1 m/S 658 mmHg 67%
    05:00 +10°C° 0 mm 1 m/S 658 mmHg 66%
    06:00 +11°C° 0 mm 1 m/S 658 mmHg 64%
    07:00 +12°C° 0 mm 1 m/S 658 mmHg 63%
    08:00 +12°C° 0 mm 1 m/S 658 mmHg 61%
    09:00 +14°C° 0 mm 2 m/S 659 mmHg 56%
    10:00 +14°C° 0 mm 3 m/S 659 mmHg 50%
    11:00 +15°C° 0 mm 4 m/S 659 mmHg 45%
    12:00 +17°C° 0 mm 4 m/S 659 mmHg 44%
    13:00 +18°C° 0 mm 4 m/S 659 mmHg 42%
    14:00 +18°C° 0 mm 4 m/S 659 mmHg 40%
    15:00 +17°C° 0 mm 4 m/S 659 mmHg 45%
    16:00 +17°C° 0 mm 3 m/S 659 mmHg 49%
    17:00 +16°C° 0 mm 3 m/S 658 mmHg 54%
    18:00 +13°C° 0,2 mm 3 m/S 658 mmHg 61%
    19:00 +13°C° 0,2 mm 2 m/S 658 mmHg 69%
    20:00 +12°C° 0,2 mm 2 m/S 657 mmHg 77%
    21:00 +10°C° 0,5 mm 2 m/S 657 mmHg 81%
    22:00 +10°C° 0,5 mm 2 m/S 657 mmHg 85%
    23:00 +10°C° 0,5 mm 2 m/S 657 mmHg 88%

    Morgen, 26 September, Dienstag

    Zeit Temperatur Niederschläge Wind Luftdruck Luftfeuchtigkeit
    00:00 +10°C° 1,4 mm 2 m/S 657 mmHg 89%
    01:00 +10°C° 1,4 mm 2 m/S 657 mmHg 90%
    02:00 +10°C° 1,4 mm 2 m/S 657 mmHg 91%
    03:00 +9°C° 2,7 mm 2 m/S 657 mmHg 91%
    04:00 +9°C° 2,7 mm 2 m/S 656 mmHg 91%
    05:00 +9°C° 2,7 mm 2 m/S 656 mmHg 91%
    06:00 +9°C° 1,7 mm 2 m/S 656 mmHg 90%
    07:00 +9°C° 1,7 mm 2 m/S 657 mmHg 90%
    08:00 +9°C° 1,7 mm 2 m/S 657 mmHg 89%
    09:00 +9°C° 1 mm 2 m/S 657 mmHg 87%
    10:00 +10°C° 1 mm 2 m/S 657 mmHg 85%
    11:00 +10°C° 1 mm 2 m/S 657 mmHg 83%
    12:00 +10°C° 1,1 mm 2 m/S 657 mmHg 82%
    13:00 +10°C° 1,1 mm 2 m/S 657 mmHg 81%
    14:00 +12°C° 1,1 mm 2 m/S 657 mmHg 81%
    15:00 +12°C° 1 mm 2 m/S 657 mmHg 81%
    16:00 +12°C° 1 mm 2 m/S 657 mmHg 81%
    17:00 +12°C° 1 mm 2 m/S 657 mmHg 81%
    18:00 +10°C° 0,4 mm 2 m/S 657 mmHg 83%
    19:00 +9°C° 0,4 mm 2 m/S 657 mmHg 86%
    20:00 +8°C° 0,4 mm 2 m/S 657 mmHg 88%
    21:00 +8°C° 0,1 mm 2 m/S 657 mmHg 88%
    22:00 +8°C° 0,1 mm 2 m/S 657 mmHg 88%
    23:00 +8°C° 0,1 mm 2 m/S 658 mmHg 89%

    übermorgen, 27 September, Mittwoch

    Zeit Temperatur Niederschläge Wind Luftdruck Luftfeuchtigkeit
    00:00 +8°C° 0,1 mm 2 m/S 658 mmHg 89%
    01:00 +8°C° 0,1 mm 2 m/S 658 mmHg 90%
    02:00 +9°C° 0,1 mm 1 m/S 658 mmHg 90%
    03:00 +9°C° 0 mm 1 m/S 658 mmHg 90%
    04:00 +10°C° 0 mm 1 m/S 658 mmHg 91%
    05:00 +10°C° 0 mm 1 m/S 658 mmHg 91%
    06:00 +10°C° 0 mm 1 m/S 659 mmHg 90%
    07:00 +11°C° 0 mm 1 m/S 659 mmHg 88%
    08:00 +11°C° 0 mm 1 m/S 659 mmHg 87%
    09:00 +12°C° 0,2 mm 1 m/S 660 mmHg 84%
    10:00 +13°C° 0,2 mm 2 m/S 660 mmHg 81%
    11:00 +13°C° 0,2 mm 2 m/S 661 mmHg 78%
    12:00 +14°C° 0,3 mm 2 m/S 661 mmHg 77%
    13:00 +14°C° 0,3 mm 2 m/S 661 mmHg 76%
    14:00 +13°C° 0,3 mm 3 m/S 661 mmHg 76%
    15:00 +12°C° 0,4 mm 3 m/S 661 mmHg 78%
    16:00 +12°C° 0,4 mm 3 m/S 661 mmHg 80%
    17:00 +11°C° 0,4 mm 3 m/S 661 mmHg 82%
    18:00 +11°C° 0,3 mm 3 m/S 661 mmHg 84%
    19:00 +10°C° 0,3 mm 3 m/S 661 mmHg 85%
    20:00 +9°C° 0,3 mm 3 m/S 661 mmHg 87%
    21:00 +9°C° 0,1 mm 3 m/S 661 mmHg 88%
    22:00 +9°C° 0,1 mm 3 m/S 661 mmHg 89%
    23:00 +8°C° 0,1 mm 2 m/S 661 mmHg 89%

    28 September, Donnerstag

    Zeit Temperatur Niederschläge Wind Luftdruck Luftfeuchtigkeit
    00:00 +8°C° 0 mm 2 m/S 661 mmHg 89%
    01:00 +8°C° 0 mm 2 m/S 661 mmHg 90%
    02:00 +7°C° 0 mm 2 m/S 661 mmHg 90%
    03:00 +7°C° 0 mm 2 m/S 661 mmHg 90%
    04:00 +7°C° 0 mm 2 m/S 660 mmHg 90%
    05:00 +6°C° 0 mm 2 m/S 660 mmHg 90%
    06:00 +7°C° 0 mm 2 m/S 660 mmHg 87%
    07:00 +7°C° 0 mm 3 m/S 661 mmHg 84%
    08:00 +8°C° 0 mm 3 m/S 661 mmHg 82%
    09:00 +9°C° 0 mm 3 m/S 661 mmHg 76%
    10:00 +10°C° 0 mm 3 m/S 662 mmHg 70%
    11:00 +11°C° 0 mm 4 m/S 662 mmHg 64%
    12:00 +11°C° 0 mm 4 m/S 662 mmHg 61%
    13:00 +12°C° 0 mm 4 m/S 662 mmHg 58%
    14:00 +12°C° 0 mm 4 m/S 662 mmHg 55%
    15:00 +11°C° 0 mm 4 m/S 661 mmHg 58%
    16:00 +11°C° 0 mm 4 m/S 661 mmHg 61%
    17:00 +10°C° 0 mm 4 m/S 661 mmHg 63%
    18:00 +8°C° 0 mm 4 m/S 661 mmHg 68%
    19:00 +8°C° 0 mm 3 m/S 661 mmHg 74%
    20:00 +7°C° 0 mm 3 m/S 660 mmHg 79%
    21:00 +7°C° 0 mm 3 m/S 660 mmHg 80%
    22:00 +5°C° 0 mm 3 m/S 660 mmHg 81%
    23:00 +5°C° 0 mm 3 m/S 660 mmHg 83%

    29 September, Freitag

    Zeit Temperatur Niederschläge Wind Luftdruck Luftfeuchtigkeit
    00:00 +5°C° 0 mm 3 m/S 660 mmHg 84%
    01:00 +5°C° 0 mm 2 m/S 660 mmHg 85%
    02:00 +5°C° 0 mm 2 m/S 659 mmHg 87%
    03:00 +5°C° 0 mm 2 m/S 659 mmHg 87%
    04:00 +4°C° 0 mm 2 m/S 659 mmHg 86%
    05:00 +4°C° 0 mm 2 m/S 659 mmHg 86%
    06:00 +4°C° 0 mm 3 m/S 659 mmHg 82%
    07:00 +5°C° 0 mm 3 m/S 659 mmHg 79%
    08:00 +5°C° 0 mm 3 m/S 660 mmHg 75%
    09:00 +7°C° 0 mm 3 m/S 660 mmHg 68%
    10:00 +8°C° 0 mm 4 m/S 660 mmHg 61%
    11:00 +10°C° 0 mm 4 m/S 660 mmHg 55%
    12:00 +10°C° 0 mm 4 m/S 660 mmHg 52%
    13:00 +11°C° 0 mm 4 m/S 660 mmHg 50%
    14:00 +12°C° 0 mm 4 m/S 660 mmHg 48%
    15:00 +11°C° 0 mm 4 m/S 659 mmHg 50%
    16:00 +10°C° 0 mm 4 m/S 659 mmHg 53%
    17:00 +10°C° 0 mm 3 m/S 659 mmHg 55%
    18:00 +8°C° 0 mm 3 m/S 659 mmHg 62%
    19:00 +7°C° 0 mm 3 m/S 658 mmHg 68%
    20:00 +5°C° 0 mm 2 m/S 658 mmHg 74%
    21:00 +5°C° 0 mm 2 m/S 658 mmHg 76%
    22:00 +4°C° 0 mm 2 m/S 658 mmHg 77%
    23:00 +4°C° 0 mm 2 m/S 658 mmHg 79%

    30 September, Samstag

    Zeit Temperatur Niederschläge Wind Luftdruck Luftfeuchtigkeit
    00:00 +4°C° 0 mm 2 m/S 657 mmHg 80%
    01:00 +3°C° 0 mm 2 m/S 657 mmHg 81%
    02:00 +3°C° 0 mm 2 m/S 657 mmHg 82%
    03:00 +3°C° 0 mm 2 m/S 657 mmHg 83%
    04:00 +2°C° 0 mm 2 m/S 656 mmHg 83%
    05:00 +2°C° 0 mm 2 m/S 656 mmHg 84%
    06:00 +3°C° 0 mm 2 m/S 657 mmHg 78%
    07:00 +4°C° 0 mm 2 m/S 657 mmHg 72%
    08:00 +5°C° 0 mm 2 m/S 657 mmHg 67%
    09:00 +7°C° 0 mm 2 m/S 657 mmHg 58%
    10:00 +9°C° 0 mm 2 m/S 658 mmHg 50%
    11:00 +12°C° 0 mm 2 m/S 658 mmHg 42%
    12:00 +12°C° 0 mm 2 m/S 658 mmHg 40%
    13:00 +13°C° 0 mm 2 m/S 658 mmHg 38%
    14:00 +12°C° 0 mm 3 m/S 658 mmHg 36%
    15:00 +13°C° 0 mm 2 m/S 657 mmHg 39%
    16:00 +12°C° 0 mm 2 m/S 657 mmHg 42%
    17:00 +10°C° 0 mm 2 m/S 656 mmHg 45%
    18:00 +8°C° 0 mm 2 m/S 656 mmHg 48%
    19:00 +7°C° 0 mm 2 m/S 656 mmHg 51%
    20:00 +7°C° 0 mm 1 m/S 656 mmHg 55%
    21:00 +6°C° 0 mm 1 m/S 656 mmHg 55%
    22:00 +6°C° 0 mm 1 m/S 656 mmHg 56%
    23:00 +6°C° 0 mm 1 m/S 656 mmHg 56%
    Mehr zeigen